Flag for U.S.A. Weather past 2 weeks in Atlanta, Georgia, U.S.A.

Now
89 °F

Passing clouds.


Feels Like: 90 °F
Forecast: 72 / 87 °F
Wind: 12 mph from West

Location: Fulton County Airport-Brown Field

Current Time: Jul 28, 2014 at 4:52:11 PM

Latest Report: Jul 28, 2014 at 3:53 PM


Visibility: 10 mi

Pressure: 29.88 "Hg

Humidity: 43%

Dew point: 64 °F

Location of AtlantaLocation

Historic Weather in Atlanta — Graph

°F

Atlanta temperature yesterday

Maximum temperature yesterday: 92 °F (at 3:53 PM)
Minimum temperature yesterday: 71 °F (at 2:53 AM)
Average temperature yesterday: 81 °F

Past Weeks' High & Low Weather Summary

 TemperatureHumidityPressure
High92 °F (Jul 27, 3:53 PM)97% (Jul 20, 5:53 AM)30.13 "Hg (Jul 20, 5:53 AM)
Low59 °F (Jul 17, 6:53 AM)33% (Jul 16, 4:53 PM)29.82 "Hg (Jul 15, 6:53 PM)
Average77 °F75%29.99 "Hg
* Reported Jul 13 3:53 PM — Jul 28 3:53 PM, Atlanta, Weather by CustomWeather, © 2014

Note: Actual official high and low records may vary slightly from our data, if they occured in-between our weather recording intervals... More about our weather records

Advertising

Atlanta weather history for previous 24 hours

 ConditionsComfort  
Time TempWeatherWind HumidityBarometerVisibility
3:53 PM
Jul 28
89 °FPassing clouds.12 mph43%29.88 "Hg10 mi
2:53 PM89 °FPassing clouds.14 mph43%29.89 "Hg10 mi
1:53 PM89 °FPassing clouds.17 mph46%29.90 "Hg10 mi
12:53 PM87 °FScattered clouds.7 mph59%29.90 "Hg10 mi
11:53 AM86 °FScattered clouds.9 mph63%29.92 "Hg10 mi
11:00 AM84 °FScattered clouds.13 mph66%29.95 "Hg10 mi
9:53 AM84 °FScattered clouds.8 mph72%29.91 "Hg10 mi
8:53 AM81 °FHaze.10 mph79%29.91 "Hg6 mi
7:53 AM78 °FPartly sunny.5 mph84%29.90 "Hg10 mi
6:53 AM77 °FPassing clouds.7 mph88%29.89 "Hg10 mi
5:53 AM78 °FPassing clouds.5 mph82%29.89 "Hg10 mi
4:53 AM78 °FPartly cloudy.3 mph84%29.89 "Hg10 mi
3:53 AM79 °FPassing clouds.5 mph79%29.89 "Hg10 mi
2:53 AM79 °FClear.5 mph79%29.90 "Hg10 mi
1:53 AM80 °FClear.5 mph76%29.91 "Hg10 mi
12:53 AM80 °FClear.6 mph79%29.93 "Hg10 mi
11:53 PM
Jul 27
81 °FClear.5 mph77%29.92 "Hg10 mi
10:53 PM83 °FClear.5 mph72%29.93 "Hg10 mi
9:53 PM84 °FClear.5 mph70%29.92 "Hg10 mi
8:53 PM86 °FSunny.5 mph65%29.92 "Hg10 mi
7:53 PM88 °FSunny.8 mph61%29.91 "Hg10 mi
6:53 PM90 °FSunny.10 mph57%29.90 "Hg10 mi
5:53 PM92 °FScattered clouds.9 mph49%29.91 "Hg10 mi
4:53 PM92 °FScattered clouds.10 mph51%29.93 "Hg10 mi
Weather by CustomWeather, © 2014

See weather overviewHow to use our weather pages